Regional Weather Roundup
Issued by NWS Boston, MA

Current Version | Previous Version | Graphics & Text | Print | Product List | Glossary On
Versions: 1 2 3 4 5 6 7 8 9 10 11 12 13 14 15 16 17 18 19 20 21 22 23 24 25 26 27 28 29 30 31 32 33 34 35 36 37 38 39 40 41 42 43 44 45 46 47 48 49 50
000
ASUS41 KBOX 261210
RWRBOX

REGIONAL WEATHER ROUNDUP
NATIONAL WEATHER SERVICE BOSTON/NORTON MA
800 AM EDT FRI APR 26 2019

NOTE:  "FAIR" INDICATES FEW OR NO CLOUDS BELOW 12,000 FEET WITH NO
SIGNIFICANT WEATHER AND/OR OBSTRUCTIONS TO VISIBILITY.

MAZALL-261300-
EASTERN MASSACHUSETTS

CITY           SKY/WX    TMP DP  RH WIND       PRES   REMARKS
BOSTON         LGT RAIN  49  45  86 E13       29.92S
6HR MIN TEMP:  48; 6HR MAX TEMP:  49; 6HR PCP:  0.01;

BEVERLY        LGT RAIN  46  42  86 E10       29.93R
LAWRENCE       LGT RAIN  46  43  89 E6        29.94R
BEDFORD        LGT RAIN  48  44  86 E9        29.91S
BLUE HILL        N/A     45  45 100 SE12      29.88S
NORWOOD        LGT RAIN  51  45  79 E6        29.91S
MARSHFIELD     CLOUDY    48  46  93 SE9G15    29.92F
PLYMOUTH       LGT RAIN  47  44  90 E9        29.91F
TAUNTON        LGT RAIN  50  46  86 E5        29.90S
NEW BEDFORD    LGT RAIN  48  48 100 E7        29.89S
$$

MAZALL-261300-
CAPE COD AND THE ISLANDS

CITY           SKY/WX    TMP DP  RH WIND       PRES   REMARKS
FALMOUTH       NOT AVBL
HYANNIS        CLOUDY    48  42  80 E10G21    29.89F
CHATHAM        CLOUDY    46  41  82 E13       29.94F
PROVINCETOWN   LGT RAIN  46  41  82 SE13      29.94F
NANTUCKET      LGT RAIN  47  43  86 E20G28    29.90F
MARTHAS VNYRD  LGT RAIN  49  46  90 E13       29.89S
$$

MAZALL-261300-
CENTRAL AND WESTERN MASSACHUSETTS

CITY           SKY/WX    TMP DP  RH WIND       PRES   REMARKS
WORCESTER      LGT RAIN  45  43  93 E7        29.89S FOG
6HR MIN TEMP:  44; 6HR MAX TEMP:  47; 6HR PCP:  0.07;

FITCHBURG      LGT RAIN  47  44  90 E5        29.92S
ORANGE         LGT RAIN  48  44  86 SE3       29.90S
SPRINGFIELD    LGT RAIN  48  45  91 E5        29.87F FOG
WESTFIELD      RAIN      48  45  89 E3        29.87F FOG
NORTH ADAMS    LGT RAIN  49  47  93 E12G18    29.81F
PITTSFIELD     LGT RAIN  49  46  90 CALM      29.79F FOG
$$

RIZALL-261300-
RHODE ISLAND

CITY           SKY/WX    TMP DP  RH WIND       PRES   REMARKS
PROVIDENCE     CLOUDY    50  47  89 E5        29.90S
6HR MIN TEMP:  49; 6HR MAX TEMP:  50; 6HR PCP:  0.02;

NEWPORT        CLOUDY    49  48  97 E10       29.88R
BLOCK ISLAND   HVY RAIN  48  46  93 E6        29.92R FOG
SMITHFIELD     CLOUDY    47  46  97 E5        29.90S
WESTERLY       RAIN      51  48  89 E7        29.92R FOG
$$

CTZALL-261300-
CONNECTICUT

CITY           SKY/WX    TMP DP  RH WIND       PRES   REMARKS
BRADLEY INTL   LGT RAIN  50  46  86 E5        29.87F
6HR MIN TEMP:  50; 6HR MAX TEMP:  54; 6HR PCP:  0.12;

HARTFORD       LGT RAIN  50  46  86 E5        29.87F
BRIDGEPORT     LGT RAIN  50  48  93 E18       29.81F
DANBURY        CLOUDY    49  45  86 E8        29.81F
GROTON         LGT RAIN  50  46  86 E12       29.87S
NEW HAVEN      CLOUDY    52  48  86 E8        29.83F
CHESTER        LGT RAIN  48  46  93 E3        29.86F
MERIDEN        LGT RAIN  49  45  86 E6        29.85F
WILLIMANTIC    LGT RAIN  48  45  89 E5        29.89R FOG
OXFORD         LGT RAIN  47  44  90 E12       29.81F
$$

MEZ002-015-021-024-NHZ003-005-008-011-012-014-VTZ005-008-261300-
NORTHERN NEW ENGLAND

CITY           SKY/WX    TMP DP  RH WIND       PRES   REMARKS
PORTLAND ME    CLOUDY    45  41  86 SE7       29.98S
6HR MIN TEMP:  39; 6HR MAX TEMP:  45;

BANGOR ME      CLOUDY    41  39  93 S8        30.01S
CONCORD NH     LGT RAIN  45  42  89 SE3       29.93R
MANCHESTER NH  LGT RAIN  46  43  89 E3        29.92R
NASHUA NH      LGT RAIN  47  47 100 E3        29.93R
PORTSMOUTH NH  LGT RAIN  45  43  92 SE9       29.93
JAFFREY NH     LGT RAIN  45  42  89 VRB3      29.89S
KEENE NH       LGT RAIN  46  44  93 SE3       29.89S
BURLINGTON VT  LGT RAIN  49  44  83 SE12      29.76F
MT. WASHINGTON FRZ RAIN  30  30 100 S33         N/A  WCI  14
$$

NYZ052-076-261300-
EASTERN NEW YORK

CITY           SKY/WX    TMP DP  RH WIND       PRES   REMARKS
ALBANY         LGT RAIN  53  49  86 S13       29.76F
6HR MIN TEMP:  53; 6HR MAX TEMP:  60; 6HR PCP:  0.17;

NEW YORK CITY  DRIZZLE   52  50  93 NE12      29.77F
6HR MIN TEMP:  51; 6HR MAX TEMP:  54; 6HR PCP:  0.20;

$$

ANZALL-261300-
MARINE OBSERVATIONS

STATION/POSITION TIME  TEMP    WIND        PRES    VSBY  WAVE
                       AIR SEA DIR/SP/G                  HT/PER
                 (UTC) (F)     (DEG/KT/KT) (MB)    (MI)  (FT/S)
BOSTON BUOY      1150   45 44  100/ 14/ 17 1012.8F         2/ 4
BUZZARDS BAY     NOT AVBL
NANTUCKET SOUND  1150   47 50  110/ 19/ 23 1012.5F         2/ 3
MASS BAY-STELLWA 1104   44 45  140/ 10/ 14 1012.9R  1 7/8  2/ 4
ISLE OF SHOALS   1100   44     140/ 11/ 13 1014.0R
S OF BLOCK IS    1200      48                N/A           4/ 4
$$

......................KEY.........................
  SKY/WX - SKY CONDITION/PRESENT WEATHER
  TMP    - TEMPERATURE IN FAHRENHEIT
  DWPT   - DEWPOINT IN FAHRENHEIT
  RH     - RELATIVE HUMIDITY IN PERCENT
  WIND   - DIRECTION AND SPEED IN MPH
  PRES   - MEAN SEA LEVEL PRESSURE IN INCHES OF HG
  WCI    - WIND CHILL INDEX
  VSB    - VISIBILITY IN MILES
  HX     - HEAT INDEX
  TC     - TEMPERATURE IN CELSIUS
  VRB    - VARIABLE WIND DIRECTION
  N/A    - NOT AVAILABLE



USA.gov is the U.S. government's official web portal to all federal, state and local government web resources and services.